AFR57SY LFPG-LFRS

Flight info

Callsign AFR57SY
Flight time 0h 47m
Altitude 25000
Route LGL UT176 ROLEN UZ15 ARDOD A5 VALAX
Aircraft A320/M-SDE2E3FGIJ1RWY/HB1

Departure

Time 2026-05-06 14:57
Airport Charles de Gaulle International Airport (LFPG)

Arrival

Time 2026-05-06 15:44
Airport Nantes Atlantique Airport (LFRS)
Time Latitude Longitude Altitude Speed Heading
2026-05-06 14:40 49.00740 2.57845 355 ft 0 kts 169°
2026-05-06 14:40 49.00741 2.57845 354 ft 0 kts 169°
2026-05-06 14:48 49.00755 2.57841 361 ft 4 kts 163°
2026-05-06 14:48 49.00778 2.57824 364 ft 4 kts 123°
2026-05-06 14:48 49.00783 2.57804 364 ft 1 kts 86°
2026-05-06 14:50 49.00783 2.57807 364 ft 2 kts 86°
2026-05-06 14:50 49.00785 2.57849 363 ft 6 kts 85°
2026-05-06 14:51 49.00791 2.57952 354 ft 13 kts 81°
2026-05-06 14:51 49.00817 2.58096 354 ft 15 kts 84°
2026-05-06 14:51 49.00845 2.58249 357 ft 15 kts 32°
2026-05-06 14:51 49.00947 2.58237 354 ft 15 kts 351°
2026-05-06 14:52 49.01053 2.58221 354 ft 16 kts 355°
2026-05-06 14:52 49.01162 2.58207 360 ft 16 kts 355°
2026-05-06 14:52 49.01271 2.58194 359 ft 16 kts 355°
2026-05-06 14:52 49.01387 2.58176 358 ft 17 kts 354°
2026-05-06 14:53 49.01513 2.58160 354 ft 19 kts 355°
2026-05-06 14:53 49.01648 2.58145 354 ft 20 kts 355°
2026-05-06 14:53 49.01790 2.58128 354 ft 21 kts 355°
2026-05-06 14:53 49.01933 2.58083 356 ft 21 kts 338°
2026-05-06 14:54 49.02044 2.57940 357 ft 21 kts 305°
2026-05-06 14:54 49.02089 2.57722 354 ft 22 kts 272°
2026-05-06 14:54 49.02079 2.57483 354 ft 23 kts 265°
2026-05-06 14:54 49.02065 2.57230 356 ft 24 kts 264°
2026-05-06 14:55 49.02108 2.57079 360 ft 15 kts 350°
2026-05-06 14:55 49.02220 2.57065 356 ft 17 kts 354°
2026-05-06 14:55 49.02338 2.57025 359 ft 18 kts 333°
2026-05-06 14:55 49.02365 2.56954 359 ft 0 kts 265°
2026-05-06 14:56 49.02363 2.56905 363 ft 21 kts 265°
2026-05-06 14:56 49.02329 2.56267 359 ft 95 kts 265°
2026-05-06 14:56 49.02260 2.54964 354 ft 149 kts 265°
2026-05-06 14:56 49.02165 2.53332 891 ft 152 kts 265°
2026-05-06 14:57 49.02069 2.51742 1611 ft 152 kts 265°
2026-05-06 14:57 49.01981 2.50124 2288 ft 154 kts 267°
2026-05-06 14:57 49.01895 2.48481 2931 ft 157 kts 268°
2026-05-06 14:57 49.01806 2.46821 3600 ft 158 kts 269°
2026-05-06 14:58 49.01715 2.45074 4001 ft 176 kts 269°
2026-05-06 14:58 49.01615 2.43103 4287 ft 198 kts 269°
2026-05-06 14:58 49.01500 2.40883 4586 ft 223 kts 269°
2026-05-06 14:58 49.01367 2.38398 5010 ft 247 kts 268°
2026-05-06 14:59 49.01238 2.35683 5625 ft 263 kts 273°
2026-05-06 14:59 49.01538 2.32924 6500 ft 267 kts 284°
2026-05-06 14:59 49.01897 2.30121 7386 ft 272 kts 284°
2026-05-06 14:59 49.02267 2.27279 8293 ft 274 kts 283°
2026-05-06 15:00 49.02635 2.24414 9220 ft 277 kts 282°
2026-05-06 15:00 49.02996 2.21523 10116 ft 279 kts 282°
2026-05-06 15:00 49.03369 2.18504 10464 ft 302 kts 282°
2026-05-06 15:00 49.03769 2.15252 10802 ft 321 kts 281°
2026-05-06 15:01 49.04062 2.11837 11452 ft 328 kts 277°
2026-05-06 15:01 49.04271 2.08350 12224 ft 333 kts 275°
2026-05-06 15:01 49.04447 2.04800 12964 ft 338 kts 275°
2026-05-06 15:01 49.04611 2.01214 13735 ft 341 kts 275°
2026-05-06 15:02 49.04777 1.97592 14422 ft 345 kts 274°
2026-05-06 15:02 49.04948 1.93936 15131 ft 347 kts 274°
2026-05-06 15:02 49.05126 1.90251 15810 ft 350 kts 274°
2026-05-06 15:02 49.05310 1.86536 16443 ft 354 kts 274°
2026-05-06 15:03 49.05496 1.82784 17118 ft 356 kts 274°
2026-05-06 15:03 49.05681 1.78995 17752 ft 361 kts 274°
2026-05-06 15:03 49.05865 1.75167 18404 ft 363 kts 274°
2026-05-06 15:03 49.06047 1.71309 18989 ft 367 kts 274°
2026-05-06 15:04 49.06232 1.67416 19618 ft 369 kts 274°
2026-05-06 15:04 49.06390 1.63491 20156 ft 373 kts 270°
2026-05-06 15:04 49.06200 1.59519 20689 ft 378 kts 263°
2026-05-06 15:04 49.05878 1.55522 21223 ft 382 kts 263°
2026-05-06 15:05 49.05554 1.51486 21761 ft 385 kts 264°
2026-05-06 15:05 49.05229 1.47411 22297 ft 389 kts 265°
2026-05-06 15:05 49.04905 1.43352 22825 ft 393 kts 264°
2026-05-06 15:05 49.04572 1.39194 23367 ft 397 kts 264°
2026-05-06 15:06 49.04231 1.35006 23901 ft 401 kts 265°
2026-05-06 15:06 49.03882 1.30772 24418 ft 404 kts 264°
2026-05-06 15:06 49.03530 1.26509 24807 ft 405 kts 263°
2026-05-06 15:06 49.02964 1.22313 24924 ft 403 kts 253°
2026-05-06 15:07 49.01924 1.18435 24949 ft 392 kts 244°
2026-05-06 15:07 49.00663 1.14780 24946 ft 388 kts 244°
2026-05-06 15:07 48.99412 1.11142 24945 ft 387 kts 244°
2026-05-06 15:07 48.98165 1.07511 24950 ft 387 kts 243°
2026-05-06 15:08 48.97322 1.05059 24947 ft 387 kts 243°
2026-05-06 15:08 48.95672 1.00266 24948 ft 387 kts 243°
2026-05-06 15:08 48.94826 0.97813 24951 ft 386 kts 244°
2026-05-06 15:08 48.93576 0.94195 24950 ft 386 kts 244°
2026-05-06 15:09 48.92327 0.90579 24948 ft 386 kts 244°
2026-05-06 15:09 48.91078 0.86967 24949 ft 386 kts 243°
2026-05-06 15:09 48.89825 0.83359 24954 ft 386 kts 243°
2026-05-06 15:09 48.88573 0.79762 24957 ft 385 kts 243°
2026-05-06 15:10 48.87308 0.76166 24957 ft 385 kts 243°
2026-05-06 15:10 48.86039 0.72587 24956 ft 385 kts 243°
2026-05-06 15:10 48.84769 0.69013 24959 ft 385 kts 243°
2026-05-06 15:10 48.83497 0.65448 24958 ft 384 kts 244°
2026-05-06 15:11 48.82219 0.61884 24960 ft 384 kts 242°
2026-05-06 15:11 48.80943 0.58326 24956 ft 384 kts 243°
2026-05-06 15:11 48.79666 0.54768 24955 ft 384 kts 242°
2026-05-06 15:11 48.78180 0.51457 24954 ft 386 kts 232°
2026-05-06 15:12 48.76447 0.48361 24951 ft 386 kts 230°
2026-05-06 15:12 48.74705 0.45260 24951 ft 386 kts 231°
2026-05-06 15:12 48.72967 0.42164 24947 ft 386 kts 232°
2026-05-06 15:12 48.71230 0.39072 24957 ft 385 kts 230°
2026-05-06 15:13 48.69494 0.35990 24963 ft 384 kts 231°
2026-05-06 15:13 48.67759 0.32913 24972 ft 384 kts 231°
2026-05-06 15:13 48.66026 0.29844 24970 ft 384 kts 231°
2026-05-06 15:13 48.64288 0.26771 24967 ft 384 kts 231°
2026-05-06 15:14 48.62649 0.23878 24956 ft 384 kts 231°
2026-05-06 15:14 48.60908 0.20807 24954 ft 384 kts 231°
2026-05-06 15:14 48.59167 0.17735 24949 ft 385 kts 231°
2026-05-06 15:14 48.57321 0.14804 24962 ft 386 kts 222°
2026-05-06 15:15 48.55275 0.12180 24959 ft 386 kts 221°
2026-05-06 15:15 48.53225 0.09565 24958 ft 386 kts 221°
2026-05-06 15:15 48.51185 0.06960 24959 ft 386 kts 222°
2026-05-06 15:15 48.49141 0.04351 24960 ft 386 kts 221°
2026-05-06 15:16 48.47096 0.01747 24964 ft 387 kts 222°
2026-05-06 15:16 48.45044 -0.00858 24975 ft 387 kts 222°
2026-05-06 15:16 48.42995 -0.03454 24976 ft 386 kts 221°
2026-05-06 15:16 48.40943 -0.06056 24978 ft 385 kts 221°
2026-05-06 15:17 48.38899 -0.08648 24980 ft 385 kts 221°
2026-05-06 15:17 48.36853 -0.11244 24984 ft 385 kts 221°
2026-05-06 15:17 48.34808 -0.13837 24980 ft 385 kts 221°
2026-05-06 15:17 48.32763 -0.16427 24981 ft 384 kts 221°
2026-05-06 15:18 48.30720 -0.19017 24980 ft 384 kts 221°
2026-05-06 15:18 48.28675 -0.21603 24983 ft 384 kts 221°
2026-05-06 15:18 48.26655 -0.24152 24984 ft 385 kts 221°
2026-05-06 15:18 48.24960 -0.26285 24986 ft 385 kts 221°
2026-05-06 15:19 48.22908 -0.28861 24983 ft 384 kts 221°
2026-05-06 15:19 48.20859 -0.31431 24976 ft 384 kts 221°
2026-05-06 15:19 48.18808 -0.34002 24969 ft 385 kts 221°
2026-05-06 15:19 48.16753 -0.36576 24968 ft 385 kts 221°
2026-05-06 15:20 48.14694 -0.39160 24967 ft 386 kts 221°
2026-05-06 15:20 48.12635 -0.41740 24968 ft 386 kts 221°
2026-05-06 15:20 48.10574 -0.44312 24966 ft 386 kts 221°
2026-05-06 15:20 48.08509 -0.46883 24966 ft 386 kts 221°
2026-05-06 15:21 48.06442 -0.49454 24970 ft 386 kts 221°
2026-05-06 15:21 48.04375 -0.52024 24966 ft 386 kts 221°
2026-05-06 15:21 48.02309 -0.54594 24969 ft 387 kts 221°
2026-05-06 15:21 48.00243 -0.57162 24964 ft 387 kts 221°
2026-05-06 15:22 47.98167 -0.59736 24962 ft 392 kts 221°
2026-05-06 15:22 47.96029 -0.62383 24977 ft 405 kts 221°
2026-05-06 15:22 47.93854 -0.65079 24974 ft 408 kts 221°
2026-05-06 15:22 47.91670 -0.67788 24975 ft 409 kts 221°
2026-05-06 15:23 47.89482 -0.70497 24977 ft 409 kts 221°
2026-05-06 15:23 47.87291 -0.73204 24979 ft 409 kts 221°
2026-05-06 15:23 47.85098 -0.75905 24977 ft 409 kts 221°
2026-05-06 15:23 47.82914 -0.78586 24859 ft 403 kts 221°
2026-05-06 15:24 47.80769 -0.81219 24425 ft 398 kts 221°
2026-05-06 15:24 47.78645 -0.83825 23935 ft 395 kts 221°
2026-05-06 15:24 47.76535 -0.86409 23471 ft 391 kts 221°
2026-05-06 15:24 47.74449 -0.88964 22960 ft 387 kts 221°
2026-05-06 15:25 47.72381 -0.91499 22453 ft 384 kts 221°
2026-05-06 15:25 47.70325 -0.94009 21928 ft 381 kts 221°
2026-05-06 15:25 47.68276 -0.96504 21425 ft 379 kts 221°
2026-05-06 15:25 47.66273 -0.98938 20934 ft 377 kts 221°
2026-05-06 15:26 47.64252 -1.01388 20421 ft 373 kts 221°
2026-05-06 15:26 47.62260 -1.03800 19571 ft 368 kts 221°
2026-05-06 15:26 47.60282 -1.06196 18725 ft 365 kts 221°
2026-05-06 15:26 47.58326 -1.08566 17848 ft 362 kts 221°
2026-05-06 15:27 47.56384 -1.10918 16921 ft 359 kts 221°
2026-05-06 15:27 47.54472 -1.13265 16096 ft 355 kts 221°
2026-05-06 15:27 47.52601 -1.15622 15306 ft 351 kts 222°
2026-05-06 15:27 47.50766 -1.17957 14544 ft 346 kts 222°
2026-05-06 15:28 47.48951 -1.20271 13789 ft 343 kts 222°
2026-05-06 15:28 47.47154 -1.22552 12970 ft 338 kts 222°
2026-05-06 15:28 47.45378 -1.24804 12216 ft 332 kts 222°
2026-05-06 15:28 47.43665 -1.26966 11852 ft 316 kts 222°
2026-05-06 15:29 47.42009 -1.29045 11659 ft 311 kts 222°
2026-05-06 15:29 47.40363 -1.31105 11424 ft 310 kts 222°
2026-05-06 15:29 47.38725 -1.33156 11185 ft 308 kts 221°
2026-05-06 15:29 47.37095 -1.35191 10951 ft 307 kts 221°
2026-05-06 15:30 47.35470 -1.37219 10713 ft 306 kts 221°
2026-05-06 15:30 47.33850 -1.39240 10479 ft 304 kts 221°
2026-05-06 15:30 47.32236 -1.41250 10246 ft 303 kts 221°
2026-05-06 15:30 47.30637 -1.43236 9994 ft 298 kts 221°
2026-05-06 15:31 47.29064 -1.45189 9778 ft 294 kts 221°
2026-05-06 15:31 47.27526 -1.47102 9544 ft 293 kts 221°
2026-05-06 15:31 47.25970 -1.49037 9320 ft 292 kts 222°
2026-05-06 15:32 47.22871 -1.52887 8871 ft 291 kts 221°
2026-05-06 15:32 47.21327 -1.54801 8649 ft 290 kts 221°
2026-05-06 15:32 47.19785 -1.56711 8429 ft 289 kts 221°
2026-05-06 15:32 47.18249 -1.58614 8207 ft 288 kts 221°
2026-05-06 15:33 47.16717 -1.60510 7980 ft 288 kts 221°
2026-05-06 15:33 47.15238 -1.62485 7766 ft 287 kts 229°
2026-05-06 15:33 47.13999 -1.64778 7539 ft 286 kts 234°
2026-05-06 15:33 47.12790 -1.67076 7328 ft 283 kts 234°
2026-05-06 15:34 47.11587 -1.69352 7114 ft 282 kts 233°
2026-05-06 15:34 47.10384 -1.71618 6915 ft 281 kts 233°
2026-05-06 15:34 47.09146 -1.73896 6336 ft 288 kts 232°
2026-05-06 15:34 47.07898 -1.76141 5890 ft 280 kts 232°
2026-05-06 15:35 47.06667 -1.78342 5176 ft 278 kts 232°
2026-05-06 15:35 47.05465 -1.80482 4832 ft 263 kts 231°
2026-05-06 15:35 47.04355 -1.82454 4729 ft 239 kts 231°
2026-05-06 15:35 47.03323 -1.84294 4648 ft 231 kts 232°
2026-05-06 15:36 47.02327 -1.86080 4544 ft 222 kts 232°
2026-05-06 15:36 47.01318 -1.87699 4319 ft 218 kts 215°
2026-05-06 15:36 46.99889 -1.88257 3979 ft 216 kts 171°
2026-05-06 15:36 46.98546 -1.87425 3732 ft 209 kts 136°
2026-05-06 15:37 46.97556 -1.85895 3474 ft 205 kts 129°
2026-05-06 15:37 46.96656 -1.84321 3233 ft 199 kts 126°
2026-05-06 15:37 46.95854 -1.82700 3109 ft 189 kts 115°
2026-05-06 15:37 46.95411 -1.80959 3039 ft 183 kts 97°
2026-05-06 15:38 46.95362 -1.79123 3029 ft 180 kts 79°
2026-05-06 15:38 46.95695 -1.77373 3012 ft 179 kts 64°
2026-05-06 15:38 46.96365 -1.75866 3010 ft 171 kts 46°
2026-05-06 15:38 46.97251 -1.74788 3022 ft 163 kts 31°
2026-05-06 15:39 46.98246 -1.74020 3022 ft 160 kts 27°
2026-05-06 15:39 46.99240 -1.73270 3026 ft 160 kts 27°
2026-05-06 15:39 47.00227 -1.72524 3024 ft 160 kts 27°
2026-05-06 15:39 47.01214 -1.71777 2910 ft 159 kts 27°
2026-05-06 15:40 47.02198 -1.71032 2730 ft 159 kts 27°
2026-05-06 15:40 47.03177 -1.70291 2534 ft 154 kts 26°
2026-05-06 15:40 47.04091 -1.69599 2360 ft 141 kts 27°
2026-05-06 15:40 47.04950 -1.68946 2167 ft 136 kts 26°
2026-05-06 15:41 47.05797 -1.68344 1975 ft 135 kts 25°
2026-05-06 15:41 47.06621 -1.67686 1827 ft 135 kts 27°
2026-05-06 15:41 47.07456 -1.67052 1639 ft 134 kts 26°
2026-05-06 15:41 47.08287 -1.66433 1432 ft 134 kts 26°
2026-05-06 15:42 47.09112 -1.65824 1239 ft 132 kts 27°
2026-05-06 15:42 47.09923 -1.65195 1034 ft 131 kts 27°
2026-05-06 15:42 47.10735 -1.64562 860 ft 133 kts 26°
2026-05-06 15:42 47.11559 -1.63932 691 ft 133 kts 28°
2026-05-06 15:43 47.12391 -1.63320 530 ft 134 kts 29°
2026-05-06 15:43 47.13215 -1.62693 335 ft 135 kts 28°
2026-05-06 15:43 47.14038 -1.62050 170 ft 135 kts 29°
2026-05-06 15:43 47.14827 -1.61443 101 ft 115 kts 27°
2026-05-06 15:44 47.15409 -1.61003 95 ft 70 kts 27°
2026-05-06 15:44 47.15696 -1.60785 99 ft 33 kts 27°
2026-05-06 15:44 47.15833 -1.60649 95 ft 15 kts 65°
2026-05-06 15:44 47.15813 -1.60532 96 ft 11 kts 111°
2026-05-06 15:45 47.15765 -1.60460 98 ft 9 kts 143°
2026-05-06 15:45 47.15729 -1.60426 98 ft 5 kts 149°
2026-05-06 15:45 47.15706 -1.60404 99 ft 4 kts 144°
2026-05-06 15:45 47.15666 -1.60354 99 ft 10 kts 137°
2026-05-06 15:46 47.15635 -1.60280 99 ft 8 kts 84°
2026-05-06 15:46 47.15665 -1.60236 98 ft 1 kts 35°
2026-05-06 15:46 47.15680 -1.60221 99 ft 3 kts 35°
2026-05-06 15:46 47.15688 -1.60212 99 ft 1 kts 35°
2026-05-06 15:47 47.15689 -1.60211 99 ft 0 kts 35°